Location: Pinawa
(50.1500°N, 95.8830°W)
Time: 22:08:13
(UTC-06:00)

Daily predictions for brighter satellites

Satellite Brightness Start Highest point End
(mag) Time Altitude Azimuth Time Altitude Azimuth Time Altitude Azimuth
Cosmos 2061 Rocket 4.2 16:55:33 10° S 17:01:53 87° WNW 17:08:20 10° N
IRAS Rocket 4.2 17:01:08 10° SSE 17:06:38 69° ENE 17:12:07 10° NNW
CENTAUR R/B 2.7 17:00:51 10° SW 17:07:01 81° SE 17:14:10 10° NE
Cosmos 1933 3.3 17:03:08 10° S 17:07:09 70° E 17:11:10 10° NNE
Cosmos 1741 Rocket 4.4 17:02:16 10° SSW 17:07:34 69° WNW 17:12:55 10° NNE
Cosmos 972 4.4 17:03:16 10° NNW 17:08:20 62° ENE 17:13:09 10° SSE
ERS-2 3.6 17:08:11 10° ESE 17:10:47 18° ENE 17:13:22 10° NNE
COSMOS 2455 3.0 17:05:30 10° SSW 17:11:24 62° ESE 17:17:21 10° NE
Okean-O 4.3 17:07:46 10° SSW 17:11:54 38° W 17:16:05 10° NNW
CZ-4 R/B 2.0 17:09:22 10° SE 17:12:47 31° ENE 17:16:13 10° N
Meteor 1-20 Rocket 4.4 17:07:39 10° N 17:13:03 47° ENE 17:18:19 10° SE
Okean 2 Rocket 4.4 17:10:28 10° NNE 17:13:53 20° ENE 17:17:16 10° ESE
COSMOS 2441 4.4 17:10:20 10° SSE 17:15:14 87° ENE 17:20:11 10° NNW
Cosmos 1633 3.5 17:13:38 10° NNE 17:16:50 27° ENE 17:20:00 10° SE
Meteor 1-25 Rocket 4.4 17:12:47 10° N 17:18:34 57° ENE 17:24:17 10° SSE
Cosmos 1733 Rocket 3.2 17:14:14 10° NNW 17:18:41 81° W 17:23:09 10° S
Cosmos 1908 Rocket 3.8 17:15:10 10° N 17:19:24 47° ENE 17:23:35 10° SSE
IDEFIX/ARIANE 42P 3.7 17:18:36 10° S 17:23:38 48° W 17:28:41 10° NNW
Cosmos 1844 Rocket 3.0 17:21:23 10° SW 17:27:00 69° WNW 17:32:38 10° NNE
BREEZE-M R/B 3.9 17:25:06 10° W 17:27:19 29° SSW 17:30:14 10° SE
BREEZE-M DEB (TANK) 1.9 17:27:33 10° W 17:29:32 60° S 17:32:03 10° ESE
Cosmos 1782 3.8 17:27:15 10° SE 17:30:36 26° E 17:33:58 10° NNE
Cosmos 44 Rocket 3.4 17:27:41 10° NW 17:32:28 58° NE 17:37:21 10° SE
Cosmos 304 Rocket 4.4 17:28:36 10° NNW 17:33:22 62° WSW 17:38:05 10° S
CZ-2C R/B 3.6 17:30:14 10° S 17:35:08 50° W 17:40:11 10° NNW
SPOT 3 Rocket 4.2 17:31:37 10° ESE 17:36:13 32° ENE 17:40:48 10° N
Cosmos 292 Rocket 4.1 17:32:17 10° NNW 17:36:49 41° ENE 17:41:18 10° SE
Cosmos 1862 Rocket 3.6 17:32:23 10° S 17:36:51 89° E 17:41:22 10° N
SJ-7 4.4 17:36:06 10° SSE 17:40:15 88° WSW 17:44:22 10° NNW
FENGYUN 3A 4.3 17:36:55 10° ESE 17:41:38 32° ENE 17:46:21 10° N
Cosmos 2233 Rocket 3.9 17:36:58 10° S 17:43:11 75° E 17:49:23 10° NNE
Okean 1-7 3.8 17:39:30 10° SSE 17:43:23 31° E 17:47:18 10° NNE
Cosmos 2242 Rocket 4.2 17:40:36 10° SSW 17:45:06 61° WNW 17:49:36 10° N
Sich 1 Rocket 3.5 17:41:29 10° N 17:45:56 73° E 17:50:23 10° SSE
CSL-04 Debris 4.4 17:44:22 10° S 17:49:47 77° WSW 17:55:13 10° NNW
Cosmos 44 3.1 17:47:22 10° NW 17:52:01 83° NE 17:56:54 10° SE
Cosmos 1833 Rocket 2.7 17:46:47 10° NNW 17:52:28 86° ENE 17:58:06 10° SSE
Lacrosse 5 2.7 17:48:16 10° WNW 17:53:04 40° N 17:56:22 18° NE
ATLAS 3B R/B 4.0 17:50:42 10° WNW 17:56:43 29° NNW 18:01:47 13° NE
Meteor 1-10 Rocket 4.5 17:56:21 10° SSE 18:01:47 48° E 18:07:22 10° NNE
USA 116 3.9 17:57:42 10° NNE 18:02:10 56° E 18:06:03 10° S
Cosmos 1782 Rocket 3.4 17:59:55 10° N 18:04:17 80° ENE 18:08:39 10° SSE
Cosmos 405 3.3 18:01:58 10° N 18:05:25 43° ENE 18:08:52 10° SSE
Cosmos 2263 Rocket 4.4 18:02:19 10° WNW 18:05:46 16° NNW 18:09:14 10° N
CORIOLIS 4.4 18:00:39 10° S 18:06:05 73° WSW 18:11:34 10° NNW
USA 161 3.9 18:05:52 10° NW 18:06:43 12° WNW 18:07:35 10° W
SL-27 R/B 4.0 18:03:56 10° NW 18:07:03 37° WSW 18:10:10 10° S
Cosmos 2297 4.0 18:01:56 10° S 18:07:23 47° ESE 18:11:15 19° NE
NOAA 12 4.3 18:02:42 10° SE 18:07:48 49° ENE 18:12:54 10° N
Cosmos 540 Rocket 3.6 18:02:54 10° NNW 18:08:06 78° WSW 18:13:15 10° SSE
Cosmos 2278 Rocket 2.3 18:03:52 10° SSW 18:09:33 81° WNW 18:14:58 12° NNE
Meteor 1-28 Rocket 3.0 18:07:24 10° NNE 18:11:08 82° ESE 18:14:51 10° S
COSMO-SKYMED 1 2.9 18:08:54 19° NE 18:11:40 41° E 18:15:47 10° S
ALOS 2.4 18:08:14 10° SE 18:12:44 50° ENE 18:17:16 10° N
YAOGAN 1 2.6 18:10:47 10° SSE 18:15:06 82° WSW 18:19:29 10° NNW
COSMOS 2487 2.6 18:12:37 10° NNW 18:16:04 46° ENE 18:16:46 39° E
USA 234 4.3 18:14:27 21° E 18:16:38 25° SE 18:21:50 10° S
SMAP 4.3 18:14:48 10° S 18:19:14 45° W 18:23:44 10° NNW
Intercosmos 25 4.1 18:12:46 10° S 18:19:50 79° E 18:24:12 10° NNE
Cosmos 968 Rocket 4.3 18:15:58 10° SSE 18:20:24 29° E 18:20:41 29° E
CZ-4C R/B 2.8 18:16:10 10° NW 18:23:07 84° NE 18:31:00 10° SE
Cosmos 1606 2.6 18:19:51 10° SSW 18:23:38 83° W 18:26:57 13° N
Landsat 4 3.6 18:21:35 20° NNE 18:24:07 78° ESE 18:27:55 10° S
Cosmos 1441 Rocket 3.7 18:21:10 10° SSE 18:24:29 38° ESE 18:24:29 38° ESE
Ariane Rocket 4.5 18:20:59 10° SSW 18:25:43 39° W 18:30:29 10° NNW
Cosmos 1503 Rocket 3.9 18:20:39 10° SSW 18:25:52 71° ESE 18:29:24 21° NNE
Meteor 1-11 Rocket 3.7 18:21:26 10° N 18:27:20 68° ENE 18:33:02 10° SSE
Cosmos 1891 Rocket 4.4 18:21:36 10° S 18:27:38 63° E 18:33:36 10° NNE
SL-23 DEB 4.3 18:23:53 10° WNW 18:27:43 81° SSW 18:30:54 27° ESE
BREEZE-M DEB (TANK) 2.8 18:25:28 10° WSW 18:27:50 73° SSE 18:28:25 54° ESE
EO 1 Del DPAF 3.1 18:32:19 49° NE 18:33:06 62° ESE 18:36:53 10° S
METEOR-M 4.4 18:31:08 10° S 18:36:27 69° WSW 18:41:48 10° NNW
Nadezhda 4 Rocket 3.8 18:30:29 10° N 18:36:37 65° ENE 18:42:40 10° SSE
Cosmos 1703 Rocket 4.2 18:32:30 10° SSW 18:36:54 58° WNW 18:41:19 10° N
Cosmos 2151 Rocket 3.4 18:35:05 10° N 18:39:30 64° ENE 18:43:53 10° SSE
Cosmos 2221 Rocket 3.6 18:36:44 10° SSW 18:41:09 80° W 18:45:01 14° N
Meteor 2-20 4.3 18:35:06 10° N 18:41:14 85° E 18:47:18 10° S
SKYMED 3 4.4 18:39:14 25° NNE 18:41:46 82° ESE 18:46:06 10° SSW
ERS-2 3.3 18:40:38 10° S 18:44:10 45° W 18:47:43 10° NNW
Cosmos 2082 Rocket 3.5 18:39:33 10° NW 18:44:54 42° WSW 18:50:10 10° S
BREEZE-M DEB (TANK) 2.3 18:43:50 10° W 18:46:11 61° S 18:46:39 54° SSE
Cosmos 1536 4.4 18:43:15 10° N 18:44:57 23° N 18:44:57 23° N
CZ-4 R/B 3.6 18:44:39 10° SSW 18:47:53 25° W 18:51:07 10° NW
Cosmos 1602 4.3 18:45:41 10° NNW 18:49:28 58° W 18:53:15 10° S
Cosmos 2034 Rocket 3.9 18:44:23 10° S 18:50:46 79° E 18:57:07 10° NNE
Okean 2 Rocket 3.9 18:47:53 10° NNW 18:52:18 53° W 18:56:43 10° S
Timation 2 Rocket 4.2 18:48:33 10° NNW 18:55:24 80° WSW 19:01:57 10° SSE
Cosmos 1092 Rocket 3.9 18:49:35 10° N 18:55:43 64° ENE 19:01:51 10° SSE
COSMOS 2455 4.1 18:52:11 10° WSW 18:57:43 36° NW 19:01:31 18° NNE
Meteor 2-6 Rocket 4.4 18:52:54 10° SSW 18:58:23 70° WNW 19:04:03 10° N
CENTAUR R/B 3.7 18:52:21 10° W 18:58:26 39° NNW 19:02:27 22° NNE
SKYMED 2 3.8 18:57:29 27° N 18:59:47 68° WNW 19:04:06 10° SSW
Cosmos 405 Rocket 2.9 18:56:48 10° SSW 19:00:28 66° W 19:00:28 66° W
Cosmos 1354 Rocket 4.5 19:00:41 10° SW 19:05:54 60° WNW 19:08:45 26° N
Cosmos 2285 Rocket 4.1 19:00:24 10° NNW 19:06:20 49° NE 19:06:20 49° NE
USA 229 DEB 4.2 19:04:56 10° S 19:10:12 39° SE 19:10:12 39° SE
USA 229 4.2 19:05:02 10° S 19:10:16 38° SE 19:10:16 38° SE
FengYun 1-2 T 4.2 19:14:01 12° SSE 19:19:07 83° WSW 19:24:46 10° NNW
Cosmos 1538 Rocket 4.0 19:15:21 10° NNW 19:20:41 81° WSW 19:21:23 67° S
Meteor 1-5 Rocket 4.3 19:18:35 10° NNW 19:23:55 68° W 19:29:10 10° S
Cosmos 2195 Rocket 4.3 19:22:12 10° N 19:28:32 79° E 19:28:39 78° E
Meteor 1-27 Rocket 4.3 19:28:24 10° SSW 19:34:14 59° WNW 19:39:29 13° N
Cosmos 2026 Rocket 4.0 19:29:05 10° N 19:34:34 66° NNE 19:34:34 66° NNE
Lacrosse 5 3.0 19:32:00 10° WNW 19:35:34 36° NNW 19:35:34 36° NNW
Cosmos 2369 Rocket 4.4 19:38:50 10° S 19:39:27 13° S 19:39:27 13° S
ATLAS 3B R/B 3.9 19:43:39 10° NW 19:49:01 28° N 19:49:01 28° N
Cosmos 2278 Rocket 4.2 19:50:17 10° W 19:54:33 21° NW 19:56:49 17° N
USA 234 3.6 20:01:49 56° SSW 20:01:49 56° SSW 20:06:56 10° SW
CZ-4C R/B 4.4 20:05:14 10° WNW 20:11:19 30° WSW 20:17:55 10° S
CENTAUR R/B 4.3 20:45:06 10° WNW 20:49:37 27° NNW 20:49:37 27° NNW
